STARLINK-5689, 55474

Orbit data source: Space-Track

STARLINK-5689, 55474 is a payload satellite owned by SpaceX/Seattle (US) in LEO that was launched on Thu, 02 Feb 2023 UTC via an FALCON 9 launch vehicle from the Air Force Eastern Test Range (AFETR). Payload-class satellites include a variety of spacecraft equipped with specific instruments for various scientific and technological missions. These include communications satellites like Starlink; space stations such as the ISS; scientific satellites like the Hubble; Earth observation satellites from companies like Planet Labs, Umbra, and HawkEye 360; GPS; miniature CubeSats for education and research; and military/defense satellites.

Loading next visibility...
Identifier
55474, 2023-015AB
Orbit
LEO
Country
Flag of USUS
Related business
Manufacturer
SpaceX/Seattle
Mission
Operational spacecraft
Bus & Motor
STARLINK, Unknown motor
Mass
305 kg wet, ~290 kg dry
Launch date (UTC)
2023-02-02 (3 years ago)
Launch vehicle
FALCON 9
Launch site
Air Force Eastern Test Range (AFETR)
Object type
Payload
Rocket body
Debris
Shape & HBR
Unknown shape, 10.1 m
Radar Cross Section
Large (>1 m²)

Expand to show TLE details & history
Last TLE update: 10 hours ago

TLE from 10 hours ago
0 STARLINK-5689
1 55474U 23015AB  25352.46810728 -.00001730  00000-0 -11303-3 0  9993
2 55474  43.0052  60.5350 0001357 266.1927  93.8760 15.02539433158382
Epoch: 2025-12-18T11:14Z
TLE epoch observation values (Epoch: 2025-12-18T11:14:04.468Z)
Latitude
-0.00006°
Longitude
164.69314°
Altitude
558.911 km
Speed
7.584 km/s
True Right ascension
04h 02m 08s
True Declination
0° 00' 00"
Sunlit
Object was in full shadow at epoch
Visualization orbit readout
Latitude
Unknown
Longitude
Unknown
Altitude
Unknown
Speed
Unknown
Apparent Right ascension
Unknown
Apparent Declination
Unknown
Sunlit
N/A
Visualization observer readout
Local Sidereal Time
20:08:39
Azimuth
Unknown
Elevation
Unknown
Doppler factor
Unknown
Orbital elements
Apogee altitude
561.934 km
Perigee altitude
560.05 km
Semi-major axis
6,939.129 km
Eccentricity
0.00014
Inclination
43.0052°
RAAN
60.535°
Arg. of periapsis
266.1927°
True anomaly
93.89151°
Mean anomaly
93.876°
Eccentric anomaly
93.88376°
Mean motion
3.75479 °/min
Orbital period
95.88 mins
BSTAR
-0.00011303
Loading maneuver chart data...
Computing Atmospheric mass density...
Loading historical data...
Loading historical data...
Loading historical data...
Loading historical data...
Loading historical data...
Loading historical data...
Loading historical data...

Documentation

Showing up to 5 results
|